FENGYUN 1C DEB, 36743

Orbit data source: Space-Track

FENGYUN 1C DEB, 36743 is space debris in SSO originally from a launch on Mon, 10 May 1999 UTC launched from the Taiyaun Space Center, China (TSC). Fengyun 1C debris stems from the Chinese weather satellite Fengyun-1C, which was intentionally destroyed by a Chinese anti-satellite missile in 2007. This event dramatically increased the amount of space debris, with thousands of trackable fragments posing hazards to satellites and human spaceflight. The Fengyun 1C debris cloud has become a focal point in discussions about space sustainability and the need for international regulations to prevent the creation of new debris.

Loading next visibility...
Identifier
36743, 1999-025EBR
Orbit
SSO
Country
Flag of CNCN / PRC
Related business
Manufacturer
Unknown
Mission
Spacecraft
Bus & Motor
Unknown
Mass
Unknown
Launch date (UTC)
1999-05-10 (27 years ago)
Launch vehicle
Unknown
Launch site
Taiyaun Space Center, China (TSC)
Object type
Payload
Rocket body
Debris
Shape & HBR
Unknown shape, 0.1 m
Radar Cross Section
Small (<0.1 m²)

Expand to show TLE details & history
Last TLE update: 6 days ago

TLE from 6 days ago
0 FENGYUN 1C DEB
1 36743U 99025EBR 26231.94571650  .00001826  00000-0  70946-3 0  9995
2 36743  98.6368 283.4433 0046247   0.2217 359.8978 14.30516365643137
Epoch: 2026-08-19T22:41Z
TLE epoch observation values (Epoch: 2026-08-19T22:41:49.905Z)
Latitude
-0.00006°
Longitude
-25.30653°
Altitude
759.779 km
Speed
7.492 km/s
True Right ascension
18h 53m 46s
True Declination
0° 00' 00"
Sunlit
Object was in full shadow at epoch
Visualization orbit readout
Latitude
Unknown
Longitude
Unknown
Altitude
Unknown
Speed
Unknown
Apparent Right ascension
Unknown
Apparent Declination
Unknown
Sunlit
N/A
Visualization observer readout
Local Sidereal Time
00:33:29
Azimuth
Unknown
Elevation
Unknown
Doppler factor
Unknown
Orbital elements
Apogee altitude
820.284 km
Perigee altitude
754.009 km
Semi-major axis
7,165.283 km
Eccentricity
0.00462
Inclination
98.6368°
RAAN
283.4433°
Arg. of periapsis
0.2217°
True anomaly
359.89685°
Mean anomaly
359.8978°
Eccentric anomaly
359.89733°
Mean motion
3.57843 °/min
Orbital period
100.6 mins
BSTAR
0.00070946
Loading maneuver chart data...
Computing Atmospheric mass density...
Loading historical data...
Loading historical data...
Loading historical data...
Loading historical data...
Loading historical data...
Loading historical data...
Loading historical data...

Documentation

Showing up to 5 results
|